SKW5246 KDEN-KCOS

Flight info

Callsign SKW5246
Flight time 0h 18m
Altitude 17000
Route LUFSE V389 ADANE/N0367F160 BRK DBRY5
Aircraft CRJ7/M-SDFGIRWY/S

Departure

Time 2026-04-17 22:24
Airport Denver International Airport (KDEN)

Arrival

Time 2026-04-17 22:42
Airport City of Colorado Springs Municipal Airport (KCOS)
Time Latitude Longitude Altitude Speed Heading
2026-04-17 21:57 39.85800 -104.66909 5378 ft 0 kts 360°
2026-04-17 22:11 39.85797 -104.66909 5378 ft 3 kts
2026-04-17 22:11 39.85770 -104.66911 5377 ft 4 kts
2026-04-17 22:11 39.85746 -104.66920 5376 ft 4 kts 26°
2026-04-17 22:11 39.85729 -104.66942 5375 ft 4 kts 73°
2026-04-17 22:12 39.85727 -104.66956 5376 ft 1 kts 88°
2026-04-17 22:12 39.85727 -104.66957 5376 ft 0 kts 88°
2026-04-17 22:14 39.85727 -104.66954 5377 ft 2 kts 88°
2026-04-17 22:14 39.85729 -104.66898 5375 ft 10 kts 92°
2026-04-17 22:14 39.85720 -104.66798 5376 ft 13 kts 93°
2026-04-17 22:14 39.85719 -104.66668 5379 ft 16 kts 91°
2026-04-17 22:15 39.85716 -104.66522 5379 ft 14 kts 104°
2026-04-17 22:15 39.85687 -104.66462 5379 ft 7 kts 111°
2026-04-17 22:15 39.85684 -104.66397 5383 ft 6 kts 69°
2026-04-17 22:15 39.85735 -104.66353 5384 ft 14 kts
2026-04-17 22:16 39.85857 -104.66349 5383 ft 18 kts
2026-04-17 22:16 39.85981 -104.66350 5383 ft 17 kts 356°
2026-04-17 22:16 39.86105 -104.66373 5378 ft 19 kts 348°
2026-04-17 22:16 39.86224 -104.66417 5377 ft 15 kts 340°
2026-04-17 22:17 39.86283 -104.66409 5377 ft 5 kts 30°
2026-04-17 22:17 39.86294 -104.66401 5376 ft 0 kts 29°
2026-04-17 22:17 39.86302 -104.66395 5378 ft 11 kts 30°
2026-04-17 22:17 39.86388 -104.66350 5377 ft 14 kts
2026-04-17 22:18 39.86500 -104.66341 5375 ft 18 kts
2026-04-17 22:18 39.86588 -104.66311 5375 ft 8 kts 71°
2026-04-17 22:18 39.86611 -104.66239 5378 ft 4 kts 34°
2026-04-17 22:18 39.86639 -104.66227 5374 ft 6 kts 11°
2026-04-17 22:19 39.86691 -104.66224 5376 ft 9 kts 359°
2026-04-17 22:19 39.86780 -104.66221 5372 ft 17 kts
2026-04-17 22:19 39.86934 -104.66220 5368 ft 25 kts 359°
2026-04-17 22:19 39.87104 -104.66217 5366 ft 24 kts 360°
2026-04-17 22:20 39.87271 -104.66218 5362 ft 23 kts
2026-04-17 22:20 39.87430 -104.66220 5359 ft 22 kts 360°
2026-04-17 22:20 39.87564 -104.66214 5360 ft 17 kts 357°
2026-04-17 22:20 39.87634 -104.66212 5361 ft 0 kts
2026-04-17 22:21 39.87635 -104.66212 5361 ft 1 kts
2026-04-17 22:21 39.87652 -104.66213 5361 ft 4 kts 358°
2026-04-17 22:21 39.87701 -104.66213 5360 ft 10 kts
2026-04-17 22:22 39.87754 -104.66148 5358 ft 10 kts 83°
2026-04-17 22:22 39.87756 -104.66106 5358 ft 0 kts 87°
2026-04-17 22:23 39.87757 -104.66034 5356 ft 30 kts 90°
2026-04-17 22:23 39.87750 -104.65425 5351 ft 102 kts 92°
2026-04-17 22:23 39.87724 -104.64264 5361 ft 148 kts 88°
2026-04-17 22:24 39.87680 -104.62881 5829 ft 154 kts 88°
2026-04-17 22:24 39.87380 -104.61491 6499 ft 173 kts 126°
2026-04-17 22:24 39.86363 -104.60592 7090 ft 192 kts 169°
2026-04-17 22:24 39.84987 -104.60743 7675 ft 207 kts 202°
2026-04-17 22:25 39.83573 -104.61436 8253 ft 228 kts 203°
2026-04-17 22:25 39.82013 -104.62100 8821 ft 250 kts 198°
2026-04-17 22:25 39.80221 -104.62452 9423 ft 272 kts 185°
2026-04-17 22:25 39.78234 -104.62249 10002 ft 300 kts 171°
2026-04-17 22:26 39.76140 -104.61481 10548 ft 325 kts 164°
2026-04-17 22:26 39.73935 -104.60473 11084 ft 347 kts 163°
2026-04-17 22:26 39.71592 -104.59377 11634 ft 368 kts 163°
2026-04-17 22:26 39.69145 -104.58257 12195 ft 386 kts 164°
2026-04-17 22:27 39.66502 -104.57129 12770 ft 403 kts 165°
2026-04-17 22:27 39.63811 -104.56017 13339 ft 415 kts 165°
2026-04-17 22:27 39.61046 -104.54861 13903 ft 419 kts 165°
2026-04-17 22:27 39.58262 -104.53696 14415 ft 420 kts 166°
2026-04-17 22:28 39.55526 -104.52551 14936 ft 405 kts 166°
2026-04-17 22:28 39.52886 -104.51450 15453 ft 391 kts 166°
2026-04-17 22:28 39.50334 -104.50388 15980 ft 378 kts 166°
2026-04-17 22:28 39.47876 -104.49362 16498 ft 365 kts 167°
2026-04-17 22:29 39.45480 -104.48363 16848 ft 359 kts 167°
2026-04-17 22:29 39.43106 -104.47378 17001 ft 359 kts 167°
2026-04-17 22:29 39.40735 -104.46396 17063 ft 360 kts 167°
2026-04-17 22:29 39.38344 -104.45404 17099 ft 362 kts 167°
2026-04-17 22:30 39.35932 -104.44402 17120 ft 365 kts 167°
2026-04-17 22:30 39.33536 -104.43410 17129 ft 368 kts 167°
2026-04-17 22:30 39.31086 -104.42399 17121 ft 370 kts 167°
2026-04-17 22:30 39.28622 -104.41377 17122 ft 372 kts 167°
2026-04-17 22:31 39.26147 -104.40354 17123 ft 374 kts 166°
2026-04-17 22:31 39.23660 -104.39320 17111 ft 376 kts 167°
2026-04-17 22:31 39.21127 -104.38615 17108 ft 371 kts 179°
2026-04-17 22:31 39.18559 -104.38464 17108 ft 370 kts 184°
2026-04-17 22:32 39.15987 -104.38557 17111 ft 369 kts 187°
2026-04-17 22:32 39.13421 -104.38756 17113 ft 370 kts 187°
2026-04-17 22:32 39.10837 -104.38956 17098 ft 371 kts 187°
2026-04-17 22:32 39.08243 -104.39125 17095 ft 373 kts 186°
2026-04-17 22:33 39.05646 -104.39258 17090 ft 374 kts 186°
2026-04-17 22:33 39.03109 -104.39767 17088 ft 368 kts 202°
2026-04-17 22:33 39.00955 -104.41368 17084 ft 360 kts 222°
2026-04-17 22:33 38.99413 -104.43834 17088 ft 352 kts 237°
2026-04-17 22:34 38.97831 -104.46182 17083 ft 346 kts 220°
2026-04-17 22:34 38.95920 -104.48037 17084 ft 342 kts 218°
2026-04-17 22:34 38.94030 -104.49873 17054 ft 339 kts 219°
2026-04-17 22:34 38.92149 -104.51720 16888 ft 341 kts 219°
2026-04-17 22:35 38.90286 -104.53554 16295 ft 338 kts 219°
2026-04-17 22:35 38.88430 -104.55387 15671 ft 336 kts 219°
2026-04-17 22:35 38.86608 -104.57189 15146 ft 326 kts 219°
2026-04-17 22:35 38.84842 -104.58938 14773 ft 313 kts 219°
2026-04-17 22:36 38.83166 -104.60600 14402 ft 303 kts 219°
2026-04-17 22:36 38.81511 -104.62241 13907 ft 299 kts 219°
2026-04-17 22:36 38.79821 -104.63842 13265 ft 298 kts 212°
2026-04-17 22:36 38.77977 -104.65005 12461 ft 301 kts 207°
2026-04-17 22:37 38.76155 -104.66295 11581 ft 298 kts 222°
2026-04-17 22:37 38.73424 -104.65871 8421 ft 296 kts 239°
2026-04-17 22:37 38.72760 -104.68337 7420 ft 293 kts 266°
2026-04-17 22:37 38.70536 -104.69727 6398 ft 282 kts 284°
2026-04-17 22:38 38.71059 -104.71387 6408 ft 269 kts 308°
2026-04-17 22:38 38.72270 -104.72867 6144 ft 1479 kts 14°
2026-04-17 22:38 38.71831 -104.72734 6168 ft 277 kts 24°
2026-04-17 22:38 38.73482 -104.72228 6227 ft 211 kts
2026-04-17 22:39 38.74762 -104.72101 6141 ft 159 kts
2026-04-17 22:39 38.75714 -104.71991 6063 ft 118 kts
2026-04-17 22:39 38.71118 -104.71942 7039 ft 98 kts 359°
2026-04-17 22:40 38.71950 -104.71904 6559 ft 122 kts
2026-04-17 22:40 38.72747 -104.71876 6263 ft 103 kts
2026-04-17 22:40 38.73426 -104.71873 5865 ft 102 kts
2026-04-17 22:40 38.74014 -104.71814 6208 ft 122 kts
2026-04-17 22:41 38.74789 -104.71754 6601 ft 149 kts
2026-04-17 22:41 38.76577 -104.71652 6301 ft 185 kts
2026-04-17 22:41 38.77836 -104.71597 6235 ft 160 kts
2026-04-17 22:41 38.78851 -104.71596 6205 ft 138 kts
2026-04-17 22:42 38.79820 -104.71590 6150 ft 139 kts
2026-04-17 22:42 38.80674 -104.71592 6156 ft 101 kts 359°
2026-04-17 22:42 38.81252 -104.71592 6165 ft 67 kts 359°
2026-04-17 22:42 38.81636 -104.71576 6175 ft 28 kts 14°
2026-04-17 22:43 38.81760 -104.71525 6177 ft 17 kts 21°
2026-04-17 22:43 38.81850 -104.71462 6177 ft 8 kts 29°
2026-04-17 22:43 38.81853 -104.71460 6176 ft 0 kts 29°
2026-04-17 22:43 38.81854 -104.71460 6176 ft 1 kts 29°
2026-04-17 22:44 38.81888 -104.71418 6175 ft 11 kts 64°
2026-04-17 22:44 38.81891 -104.71378 6175 ft 4 kts 110°
2026-04-17 22:44 38.81866 -104.71349 6176 ft 13 kts 162°
2026-04-17 22:44 38.81733 -104.71342 6176 ft 21 kts 177°
2026-04-17 22:45 38.81581 -104.71343 6172 ft 22 kts 182°
2026-04-17 22:45 38.81418 -104.71337 6168 ft 24 kts 184°
2026-04-17 22:45 38.81246 -104.71340 6165 ft 26 kts 175°
2026-04-17 22:45 38.81061 -104.71345 6162 ft 28 kts 180°
2026-04-17 22:46 38.80860 -104.71345 6159 ft 30 kts 181°
2026-04-17 22:46 38.80644 -104.71343 6155 ft 32 kts 183°
2026-04-17 22:46 38.80430 -104.71347 6152 ft 29 kts 180°
2026-04-17 22:46 38.80288 -104.71327 6149 ft 8 kts 129°
2026-04-17 22:47 38.80281 -104.71231 6149 ft 18 kts 89°
2026-04-17 22:47 38.80279 -104.71061 6149 ft 19 kts 90°
2026-04-17 22:47 38.80281 -104.70887 6149 ft 20 kts 91°
2026-04-17 22:47 38.80280 -104.70706 6149 ft 21 kts 91°
2026-04-17 22:48 38.80281 -104.70558 6149 ft 15 kts 89°
2026-04-17 22:48 38.80279 -104.70405 6149 ft 20 kts 91°
2026-04-17 22:48 38.80282 -104.70221 6149 ft 21 kts 90°
2026-04-17 22:48 38.80270 -104.70096 6149 ft 3 kts 134°
2026-04-17 22:49 38.80266 -104.70093 6149 ft 3 kts 150°
2026-04-17 22:49 38.80185 -104.70084 6148 ft 20 kts 180°
2026-04-17 22:49 38.80075 -104.70061 6146 ft 16 kts 136°
2026-04-17 22:49 38.80052 -104.69976 6146 ft 10 kts 107°
2026-04-17 22:50 38.79997 -104.69924 6144 ft 11 kts 167°
2026-04-17 22:50 38.79913 -104.69924 6143 ft 12 kts 192°
2026-04-17 22:50 38.79888 -104.69937 6143 ft 0 kts 231°
2026-04-17 22:50 38.79888 -104.69940 6143 ft 0 kts 259°
2026-04-17 22:51 38.79888 -104.69947 6143 ft 5 kts 272°
2026-04-17 22:51 38.79889 -104.70023 6143 ft 0 kts 269°